Location: West Sayville
(40.7279°N, 73.0976°W)
Time: 06:04:32
(UTC+00:00)

ATLAS 2AS CENTAUR R/B - Pass Details

Date: 29 October 2020
Orbit: 939 x 1273 km, 63.7° (Epoch: 23 November)

Event Time Altitude Azimuth Distance (km) Brightness Sun altitude
Rises 23:37:49 0° 328° (NNW) 4,148 6.2 -20.6°
Reaches altitude 10° 23:40:59 10° 337° (NNW) 3,137 5.4 -21.2°
Maximum altitude 23:47:45 35° 41° (NE) 1,745 3.5 -22.5°
Enters shadow 23:48:39 34° 56° (NE) 1,765 3.4 -22.7°
